QPF
0.00 0.00 0.00 0.00 0.00 0.00 0.00 0.00 0.00 0.00 0.00 0.00 0.00 0.00 0.00 0.00 0.00 0.00 0.00 0.00 0.00 0.00 0.00 0.00 0.00 0.00 0.00 0.00 0.00 0.00 0.00 0.00 0.01 0.02 0.05 0.04 0.02 0.02 0.01 0.01 0.00 0.00 0.00 0.00
0.00 0.00 0.00 0.00 0.00 0.00 0.00 0.00 0.00 0.00 0.00 0.00 0.00 0.00 0.00 0.00 0.00 0.00 0.00 0.00 0.00 0.00 0.00 0.00 0.00 0.00 0.00 0.00 0.00 0.00 0.00 0.00 0.01 0.04 0.06 0.07 0.04 0.02 0.01 0.01 0.00 0.00 0.00 0.00
0.00 0.00 0.00 0.00 0.00 0.00 0.00 0.00 0.00 0.00 0.00 0.00 0.00 0.00 0.00 0.00 0.00 0.00 0.00 0.00 0.00 0.00 0.00 0.00 0.00 0.00 0.00 0.00 0.00 0.00 0.00 0.01 0.02 0.03 0.05 0.05 0.03 0.01 0.00 0.00 0.00 0.00 0.00 0.00
0.00 0.00 0.00 0.00 0.00 0.00 0.00 0.00 0.00 0.00 0.00 0.00 0.00 0.00 0.00 0.00 0.00 0.00 0.00 0.00 0.00 0.00 0.00 0.00 0.00 0.00 0.00 0.00 0.00 0.00 0.00 0.01 0.02 0.03 0.05 0.04 0.02 0.01 0.00 0.00 0.00 0.00 0.00 0.00
0.00 0.00 0.00 0.00 0.00 0.00 0.00 0.00 0.00 0.00 0.01 0.01 0.00 0.00 0.00 0.00 0.00 0.00 0.00 0.00 0.00 0.00 0.00 0.00 0.00 0.00 0.00 0.00 0.00 0.00 0.00 0.00 0.01 0.02 0.06 0.06 0.02 0.01 0.00 0.00 0.00 0.00 0.00 0.00
0.00 0.00 0.00 0.00 0.00 0.00 0.00 0.01 0.01 0.01 0.04 0.04 0.00 0.00 0.00 0.00 0.00 0.00 0.00 0.00 0.00 0.00 0.00 0.00 0.00 0.00 0.00 0.00 0.00 0.00 0.00 0.00 0.00 0.01 0.03 0.02 0.00 0.00 0.00 0.00 0.00 0.00 0.00 0.00
0.00 0.00 0.00 0.00 0.00 0.00 0.00 0.03 0.06 0.05 0.06 0.02 0.00 0.00 0.00 0.00 0.00 0.00 0.00 0.00 0.00 0.00 0.00 0.00 0.00 0.00 0.00 0.00 0.00 0.00 0.00 0.00 0.00 0.01 0.01 0.01 0.01 0.00 0.00 0.00 0.00 0.00 0.00 0.00
0.01 0.00 0.00 0.00 0.00 0.00 0.00 0.02 0.04 0.03 0.01 0.00 0.00 0.00 0.00 0.00 0.00 0.00 0.00 0.00 0.00 0.00 0.00 0.00 0.00 0.00 0.00 0.00 0.00 0.00 0.00 0.00 0.00 0.00 0.00 0.01 0.01 0.00 0.00 0.00 0.00 0.00 0.00 0.00
0.00 0.00 0.00 0.00 0.00 0.01 0.02 0.03 0.02 0.08 0.07 0.04 0.01 0.00 0.00 0.00 0.00 0.00 0.00 0.00 0.00 0.00 0.00 0.00 0.00 0.00 0.00 0.00 0.00 0.00 0.00 0.00 0.00 0.00 0.00 0.00 0.00 0.00 0.00 0.00 0.00 0.00 0.00 0.00
0.00 0.00 0.00 0.00 0.00 0.00 0.01 0.02 0.06 0.15 0.10 0.04 0.01 0.00 0.00 0.00 0.00 0.00 0.00 0.00 0.00 0.00 0.00 0.00 0.00 0.00 0.00 0.00 0.00 0.00 0.00 0.00 0.00 0.00 0.00 0.00 0.00 0.00 0.00 0.00 0.00 0.00 0.00 0.00
0.00 0.01 0.00 0.00 0.00 0.00 0.01 0.04 0.07 0.10 0.07 0.03 0.01 0.00 0.00 0.00 0.00 0.00 0.00 0.00 0.00 0.00 0.00 0.00 0.00 0.00 0.00 0.00 0.00 0.00 0.00 0.00 0.00 0.00 0.00 0.00 0.00 0.00 0.00 0.00 0.00 0.00 0.00 0.00
0.00 0.01 0.01 0.00 0.00 0.00 0.01 0.01 0.05 0.11 0.07 0.04 0.02 0.00 0.00 0.00 0.00 0.00 0.00 0.00 0.00 0.00 0.00 0.00 0.00 0.00 0.00 0.00 0.00 0.00 0.00 0.00 0.00 0.00 0.00 0.00 0.00 0.00 0.00 0.00 0.00 0.00 0.00 0.00
0.00 0.02 0.03 0.02 0.02 0.03 0.04 0.02 0.04 0.12 0.14 0.09 0.04 0.01 0.00 0.00 0.00 0.00 0.00 0.00 0.00 0.00 0.00 0.00 0.00 0.00 0.00 0.00 0.00 0.00 0.00 0.00 0.00 0.00 0.00 0.00 0.00 0.00 0.00 0.00 0.00 0.00 0.00 0.00
0.02 0.03 0.03 0.03 0.03 0.11 0.14 0.07 0.07 0.21 0.20 0.05 0.01 0.00 0.00 0.00 0.01 0.01 0.01 0.01 0.00 0.00 0.00 0.00 0.00 0.00 0.00 0.00 0.00 0.00 0.00 0.00 0.00 0.00 0.00 0.00 0.00 0.00 0.00 0.00 0.00 0.00 0.00 0.00
0.04 0.07 0.04 0.04 0.08 0.19 0.20 0.13 0.12 0.15 0.07 0.02 0.00 0.00 0.01 0.02 0.03 0.05 0.04 0.02 0.00 0.00 0.00 0.00 0.00 0.00 0.00 0.00 0.00 0.00 0.00 0.00 0.01 0.00 0.00 0.00 0.00 0.00 0.00 0.00 0.00 0.00 0.00 0.00
0.04 0.07 0.05 0.05 0.07 0.16 0.17 0.08 0.07 0.06 0.03 0.02 0.01 0.01 0.02 0.05 0.08 0.10 0.07 0.03 0.01 0.01 0.00 0.00 0.00 0.00 0.00 0.00 0.01 0.01 0.02 0.01 0.01 0.00 0.00 0.00 0.00 0.00 0.00 0.00 0.00 0.00 0.00 0.00
0.03 0.08 0.13 0.07 0.03 0.10 0.09 0.05 0.04 0.02 0.01 0.01 0.02 0.02 0.04 0.09 0.12 0.09 0.05 0.03 0.01 0.01 0.01 0.00 0.00 0.00 0.00 0.01 0.02 0.04 0.03 0.01 0.00 0.00 0.00 0.00 0.00 0.00 0.00 0.00 0.00 0.00 0.00 0.00
0.02 0.08 0.17 0.10 0.09 0.16 0.09 0.04 0.03 0.01 0.00 0.00 0.00 0.01 0.02 0.03 0.03 0.03 0.02 0.02 0.01 0.01 0.01 0.01 0.00 0.00 0.00 0.01 0.02 0.02 0.01 0.00 0.00 0.00 0.00 0.00 0.00 0.00 0.00 0.00 0.00 0.00 0.00 0.00
0.01 0.08 0.17 0.13 0.13 0.09 0.04 0.02 0.02 0.01 0.01 0.00 0.00 0.00 0.00 0.00 0.01 0.01 0.01 0.01 0.01 0.01 0.00 0.00 0.00 0.00 0.00 0.01 0.01 0.00 0.00 0.00 0.00 0.00 0.00 0.00 0.00 0.00 0.00 0.00 0.00 0.00 0.00 0.00
0.00 0.03 0.08 0.07 0.07 0.05 0.02 0.01 0.01 0.00 0.00 0.00 0.00 0.00 0.00 0.00 0.00 0.00 0.00 0.00 0.00 0.00 0.00 0.00 0.00 0.00 0.00 0.00 0.00 0.00 0.00 0.00 0.00 0.00 0.00 0.00 0.00 0.00 0.00 0.00 0.00 0.00 0.00 0.00
0.00 0.01 0.02 0.02 0.02 0.01 0.00 0.00 0.00 0.00 0.00 0.00 0.00 0.00 0.00 0.00 0.00 0.00 0.00 0.00 0.00 0.00 0.00 0.00 0.00 0.00 0.00 0.00 0.00 0.00 0.00 0.00 0.00 0.00 0.00 0.00 0.00 0.00 0.00 0.00 0.00 0.00 0.00 0.00
0.00 0.00 0.00 0.00 0.00 0.00 0.00 0.00 0.00 0.00 0.00 0.00 0.00 0.00 0.00 0.00 0.00 0.00 0.00 0.00 0.00 0.00 0.00 0.00 0.00 0.00 0.00 0.00 0.00 0.00 0.00 0.00 0.00 0.00 0.00 0.00 0.00 0.00 0.00 0.00 0.00 0.00 0.00 0.00
0.00 0.00 0.00 0.00 0.00 0.00 0.00 0.00 0.00 0.00 0.00 0.00 0.00 0.00 0.00 0.00 0.00 0.00 0.00 0.00 0.00 0.00 0.00 0.00 0.00 0.00 0.00 0.00 0.00 0.00 0.00 0.00 0.00 0.00 0.00 0.00 0.00 0.00 0.00 0.00 0.00 0.00 0.00 0.00
0.00 0.00 0.00 0.00 0.00 0.00 0.00 0.00 0.00 0.00 0.00 0.00 0.00 0.00 0.00 0.00 0.00 0.00 0.00 0.00 0.00 0.00 0.00 0.00 0.00 0.00 0.00 0.00 0.00 0.00 0.00 0.00 0.00 0.00 0.00 0.00 0.00 0.00 0.00 0.00 0.00 0.00 0.00 0.00
0.00 0.00 0.00 0.00 0.00 0.00 0.00 0.00 0.00 0.00 0.00 0.00 0.00 0.00 0.00 0.00 0.00 0.00 0.00 0.00 0.00 0.00 0.00 0.00 0.00 0.00 0.00 0.00 0.00 0.00 0.00 0.00 0.00 0.00 0.00 0.00 0.00 0.00 0.00 0.00 0.00 0.00 0.00 0.00
0.00 0.00 0.00 0.00 0.00 0.00 0.00 0.00 0.00 0.00 0.00 0.00 0.00 0.00 0.00 0.00 0.00 0.00 0.00 0.00 0.00 0.00 0.00 0.00 0.00 0.00 0.00 0.00 0.00 0.00 0.00 0.00 0.00 0.00 0.00 0.00 0.00 0.00 0.00 0.00 0.00 0.00 0.00 0.00
MSLP
1014.51 1014.72 1014.91 1015.05 1015.13 1015.12 1015.01 1014.78 1014.43 1013.97 1013.42 1012.79 1012.12 1011.44 1010.78 1010.15 1009.58 1009.05 1008.58 1008.14 1007.75 1007.40 1007.10 1006.87 1006.72 1006.67 1006.73 1006.91 1007.20 1007.59 1008.07 1008.61 1009.20 1009.82 1010.47 1011.15 1011.84 1012.56 1013.28 1013.99 1014.68 1015.33 1015.92 1016.44
1014.43 1014.62 1014.81 1014.98 1015.11 1015.16 1015.11 1014.92 1014.59 1014.11 1013.50 1012.79 1012.01 1011.21 1010.43 1009.71 1009.05 1008.47 1007.97 1007.53 1007.14 1006.80 1006.51 1006.28 1006.13 1006.08 1006.15 1006.33 1006.64 1007.07 1007.59 1008.19 1008.85 1009.54 1010.26 1011.01 1011.76 1012.53 1013.30 1014.06 1014.79 1015.47 1016.10 1016.65
1014.30 1014.47 1014.67 1014.89 1015.07 1015.20 1015.21 1015.08 1014.76 1014.25 1013.57 1012.76 1011.85 1010.92 1010.01 1009.17 1008.42 1007.79 1007.25 1006.80 1006.42 1006.09 1005.81 1005.60 1005.46 1005.41 1005.48 1005.68 1006.01 1006.47 1007.05 1007.72 1008.45 1009.22 1010.01 1010.82 1011.64 1012.46 1013.27 1014.06 1014.83 1015.55 1016.20 1016.78
1014.11 1014.28 1014.50 1014.76 1015.01 1015.20 1015.28 1015.18 1014.86 1014.32 1013.57 1012.64 1011.60 1010.53 1009.48 1008.52 1007.68 1006.98 1006.41 1005.96 1005.59 1005.28 1005.02 1004.83 1004.70 1004.66 1004.74 1004.96 1005.32 1005.82 1006.46 1007.19 1008.00 1008.84 1009.71 1010.59 1011.46 1012.32 1013.17 1013.99 1014.79 1015.53 1016.22 1016.83
1013.88 1014.05 1014.29 1014.58 1014.88 1015.12 1015.24 1015.16 1014.84 1014.25 1013.42 1012.39 1011.22 1010.01 1008.83 1007.76 1006.84 1006.09 1005.50 1005.05 1004.69 1004.41 1004.18 1004.00 1003.89 1003.87 1003.97 1004.20 1004.60 1005.15 1005.84 1006.64 1007.51 1008.44 1009.37 1010.31 1011.23 1012.13 1013.01 1013.86 1014.68 1015.45 1016.16 1016.79
1013.61 1013.78 1014.03 1014.33 1014.66 1014.92 1015.06 1014.98 1014.63 1013.99 1013.09 1011.96 1010.69 1009.37 1008.09 1006.94 1005.97 1005.18 1004.58 1004.13 1003.80 1003.55 1003.35 1003.20 1003.11 1003.11 1003.22 1003.48 1003.91 1004.50 1005.24 1006.10 1007.04 1008.02 1009.02 1010.01 1010.98 1011.91 1012.82 1013.70 1014.54 1015.33 1016.06 1016.71
1013.30 1013.47 1013.71 1014.00 1014.32 1014.58 1014.70 1014.60 1014.21 1013.53 1012.57 1011.37 1010.03 1008.64 1007.31 1006.11 1005.11 1004.32 1003.72 1003.30 1003.00 1002.78 1002.61 1002.49 1002.43 1002.45 1002.59 1002.87 1003.33 1003.95 1004.73 1005.63 1006.62 1007.65 1008.70 1009.73 1010.74 1011.70 1012.63 1013.53 1014.39 1015.20 1015.95 1016.62
1012.96 1013.11 1013.33 1013.60 1013.88 1014.10 1014.18 1014.03 1013.61 1012.89 1011.89 1010.66 1009.29 1007.88 1006.54 1005.34 1004.35 1003.57 1003.01 1002.62 1002.35 1002.17 1002.04 1001.96 1001.93 1001.97 1002.13 1002.44 1002.91 1003.56 1004.37 1005.30 1006.32 1007.38 1008.46 1009.51 1010.54 1011.53 1012.49 1013.40 1014.28 1015.11 1015.88 1016.58
1012.59 1012.72 1012.91 1013.13 1013.35 1013.51 1013.52 1013.33 1012.87 1012.12 1011.11 1009.88 1008.53 1007.15 1005.84 1004.68 1003.73 1003.00 1002.48 1002.13 1001.91 1001.77 1001.68 1001.63 1001.63 1001.71 1001.90 1002.23 1002.73 1003.39 1004.21 1005.15 1006.18 1007.25 1008.34 1009.41 1010.45 1011.45 1012.42 1013.35 1014.25 1015.10 1015.89 1016.60
1012.20 1012.31 1012.45 1012.62 1012.77 1012.85 1012.80 1012.55 1012.05 1011.29 1010.29 1009.10 1007.80 1006.49 1005.25 1004.17 1003.28 1002.62 1002.15 1001.85 1001.67 1001.57 1001.52 1001.52 1001.56 1001.68 1001.90 1002.26 1002.78 1003.46 1004.28 1005.22 1006.24 1007.31 1008.38 1009.44 1010.48 1011.48 1012.46 1013.41 1014.32 1015.19 1016.00 1016.73
1011.78 1011.88 1011.98 1012.08 1012.16 1012.16 1012.04 1011.73 1011.20 1010.44 1009.47 1008.34 1007.12 1005.90 1004.76 1003.77 1002.98 1002.38 1001.98 1001.73 1001.59 1001.54 1001.54 1001.58 1001.67 1001.84 1002.11 1002.51 1003.06 1003.75 1004.59 1005.52 1006.52 1007.56 1008.61 1009.65 1010.67 1011.66 1012.64 1013.59 1014.52 1015.40 1016.22 1016.95
1011.35 1011.43 1011.50 1011.54 1011.54 1011.47 1011.27 1010.91 1010.35 1009.59 1008.66 1007.60 1006.47 1005.36 1004.33 1003.45 1002.75 1002.23 1001.89 1001.69 1001.61 1001.60 1001.65 1001.75 1001.90 1002.14 1002.47 1002.93 1003.52 1004.24 1005.08 1006.01 1006.99 1008.00 1009.02 1010.02 1011.01 1011.98 1012.94 1013.89 1014.82 1015.70 1016.52 1017.25
1010.90 1010.96 1010.99 1010.97 1010.91 1010.75 1010.48 1010.06 1009.47 1008.72 1007.83 1006.84 1005.81 1004.81 1003.90 1003.13 1002.52 1002.09 1001.82 1001.68 1001.64 1001.69 1001.79 1001.96 1002.19 1002.50 1002.92 1003.45 1004.10 1004.86 1005.72 1006.65 1007.62 1008.60 1009.58 1010.54 1011.49 1012.43 1013.36 1014.29 1015.20 1016.07 1016.88 1017.59
1010.41 1010.45 1010.44 1010.37 1010.23 1010.00 1009.65 1009.17 1008.55 1007.80 1006.94 1006.02 1005.09 1004.20 1003.40 1002.75 1002.25 1001.90 1001.71 1001.63 1001.65 1001.76 1001.93 1002.17 1002.48 1002.89 1003.39 1004.01 1004.73 1005.55 1006.44 1007.38 1008.34 1009.30 1010.25 1011.17 1012.08 1012.98 1013.87 1014.77 1015.64 1016.49 1017.27 1017.95
1009.89 1009.89 1009.83 1009.70 1009.48 1009.17 1008.75 1008.20 1007.54 1006.78 1005.96 1005.10 1004.26 1003.49 1002.82 1002.29 1001.90 1001.66 1001.55 1001.55 1001.64 1001.81 1002.06 1002.38 1002.78 1003.27 1003.87 1004.57 1005.37 1006.25 1007.19 1008.15 1009.12 1010.07 1010.99 1011.87 1012.74 1013.59 1014.44 1015.28 1016.11 1016.91 1017.64 1018.27
1009.32 1009.27 1009.15 1008.94 1008.65 1008.25 1007.75 1007.14 1006.44 1005.68 1004.88 1004.10 1003.36 1002.71 1002.18 1001.78 1001.52 1001.40 1001.39 1001.48 1001.65 1001.90 1002.22 1002.61 1003.09 1003.67 1004.35 1005.13 1006.00 1006.94 1007.93 1008.92 1009.90 1010.85 1011.75 1012.61 1013.43 1014.24 1015.03 1015.81 1016.57 1017.30 1017.97 1018.54
1008.71 1008.60 1008.40 1008.11 1007.73 1007.25 1006.67 1006.00 1005.27 1004.51 1003.76 1003.06 1002.43 1001.92 1001.54 1001.30 1001.19 1001.20 1001.31 1001.50 1001.76 1002.09 1002.47 1002.93 1003.48 1004.12 1004.86 1005.71 1006.63 1007.63 1008.65 1009.67 1010.67 1011.62 1012.51 1013.35 1014.13 1014.89 1015.62 1016.33 1017.01 1017.66 1018.25 1018.75
1008.08 1007.89 1007.61 1007.24 1006.77 1006.20 1005.56 1004.85 1004.11 1003.38 1002.69 1002.09 1001.60 1001.24 1001.03 1000.96 1001.01 1001.17 1001.42 1001.72 1002.07 1002.46 1002.91 1003.41 1004.00 1004.68 1005.46 1006.34 1007.29 1008.31 1009.36 1010.40 1011.41 1012.36 1013.25 1014.06 1014.82 1015.52 1016.19 1016.82 1017.42 1017.98 1018.48 1018.90
1007.44 1007.16 1006.80 1006.35 1005.81 1005.19 1004.51 1003.79 1003.07 1002.39 1001.80 1001.31 1000.97 1000.79 1000.75 1000.86 1001.09 1001.41 1001.78 1002.19 1002.63 1003.08 1003.57 1004.11 1004.71 1005.40 1006.18 1007.06 1008.02 1009.04 1010.09 1011.13 1012.14 1013.09 1013.96 1014.76 1015.48 1016.14 1016.74 1017.29 1017.80 1018.27 1018.67 1019.00
1006.80 1006.44 1006.02 1005.51 1004.93 1004.29 1003.61 1002.92 1002.26 1001.67 1001.19 1000.85 1000.67 1000.66 1000.81 1001.09 1001.48 1001.94 1002.44 1002.95 1003.46 1003.96 1004.48 1005.02 1005.62 1006.29 1007.05 1007.90 1008.83 1009.83 1010.86 1011.89 1012.88 1013.81 1014.67 1015.43 1016.12 1016.72 1017.26 1017.73 1018.16 1018.53 1018.83 1019.07
1006.17 1005.76 1005.29 1004.76 1004.18 1003.56 1002.93 1002.31 1001.75 1001.29 1000.95 1000.77 1000.76 1000.91 1001.23 1001.67 1002.19 1002.77 1003.37 1003.95 1004.52 1005.06 1005.59 1006.12 1006.70 1007.34 1008.06 1008.87 1009.75 1010.70 1011.69 1012.67 1013.63 1014.53 1015.36 1016.09 1016.73 1017.28 1017.75 1018.15 1018.49 1018.76 1018.98 1019.13
1005.55 1005.11 1004.63 1004.11 1003.58 1003.04 1002.50 1002.01 1001.59 1001.28 1001.11 1001.08 1001.23 1001.53 1001.98 1002.54 1003.17 1003.83 1004.50 1005.14 1005.73 1006.29 1006.82 1007.35 1007.91 1008.51 1009.18 1009.93 1010.76 1011.65 1012.57 1013.51 1014.41 1015.26 1016.03 1016.72 1017.31 1017.80 1018.20 1018.53 1018.79 1018.98 1019.11 1019.18
1004.93 1004.48 1004.03 1003.58 1003.14 1002.72 1002.34 1002.01 1001.76 1001.62 1001.61 1001.75 1002.03 1002.45 1002.99 1003.62 1004.31 1005.02 1005.72 1006.38 1006.99 1007.56 1008.10 1008.62 1009.16 1009.73 1010.36 1011.06 1011.83 1012.65 1013.50 1014.36 1015.19 1015.98 1016.69 1017.31 1017.84 1018.27 1018.61 1018.87 1019.05 1019.17 1019.23 1019.23
1004.30 1003.87 1003.49 1003.14 1002.84 1002.58 1002.38 1002.25 1002.19 1002.24 1002.39 1002.66 1003.05 1003.54 1004.14 1004.80 1005.51 1006.23 1006.93 1007.59 1008.21 1008.79 1009.33 1009.85 1010.38 1010.94 1011.55 1012.20 1012.91 1013.66 1014.44 1015.21 1015.96 1016.66 1017.30 1017.84 1018.30 1018.67 1018.94 1019.14 1019.26 1019.32 1019.32 1019.27
1003.65 1003.27 1002.98 1002.76 1002.63 1002.56 1002.57 1002.64 1002.79 1003.01 1003.31 1003.69 1004.16 1004.70 1005.31 1005.97 1006.66 1007.35 1008.03 1008.69 1009.31 1009.89 1010.45 1010.99 1011.53 1012.09 1012.68 1013.30 1013.96 1014.65 1015.34 1016.03 1016.68 1017.29 1017.83 1018.29 1018.68 1018.97 1019.19 1019.33 1019.40 1019.42 1019.38 1019.28
1002.99 1002.68 1002.50 1002.44 1002.48 1002.61 1002.83 1003.11 1003.44 1003.83 1004.25 1004.73 1005.25 1005.81 1006.41 1007.04 1007.69 1008.34 1009.00 1009.64 1010.26 1010.86 1011.44 1012.01 1012.58 1013.15 1013.73 1014.33 1014.95 1015.56 1016.17 1016.77 1017.32 1017.83 1018.27 1018.65 1018.95 1019.19 1019.35 1019.44 1019.48 1019.46 1019.39 1019.27
Thickness
5567 5569 5573 5581 5582 5589 5589 5591 5595 5599 5602 5602 5616 5629 5635 5640 5642 5645 5650 5655 5659 5666 5674 5678 5683 5688 5689 5690 5691 5692 5690 5686 5680 5675 5671 5666 5662 5657 5652 5648 5642 5638 5634 5629
5557 5562 5574 5576 5574 5573 5574 5577 5583 5588 5590 5591 5607 5624 5632 5635 5640 5643 5645 5650 5655 5662 5668 5674 5678 5682 5683 5685 5685 5686 5686 5681 5676 5672 5667 5662 5656 5649 5644 5637 5631 5627 5625 5621
5564 5565 5568 5564 5563 5562 5567 5568 5571 5571 5574 5580 5586 5617 5639 5644 5643 5642 5644 5648 5654 5660 5665 5670 5675 5679 5680 5679 5680 5681 5681 5675 5670 5666 5660 5652 5646 5639 5632 5625 5620 5617 5615 5612
5558 5561 5558 5556 5556 5555 5559 5565 5561 5557 5554 5566 5571 5584 5633 5631 5629 5631 5636 5643 5652 5659 5663 5667 5672 5677 5679 5677 5677 5676 5675 5670 5666 5661 5655 5653 5650 5642 5632 5623 5614 5609 5606 5604
5553 5552 5551 5552 5553 5552 5555 5553 5551 5548 5545 5546 5560 5549 5602 5615 5614 5621 5630 5639 5647 5653 5657 5661 5666 5671 5676 5675 5672 5671 5667 5664 5661 5656 5652 5649 5646 5639 5625 5614 5607 5602 5598 5595
5551 5547 5547 5550 5550 5548 5545 5538 5536 5532 5525 5530 5560 5542 5575 5608 5606 5610 5622 5630 5636 5641 5647 5653 5659 5663 5667 5666 5664 5663 5661 5659 5656 5653 5648 5646 5640 5629 5617 5608 5601 5596 5591 5586
5542 5545 5544 5542 5540 5538 5533 5524 5524 5522 5518 5533 5554 5539 5562 5594 5591 5593 5601 5611 5620 5628 5636 5643 5650 5654 5658 5658 5658 5658 5656 5654 5651 5648 5645 5639 5631 5624 5616 5608 5600 5594 5586 5579
5538 5548 5546 5540 5537 5535 5528 5522 5520 5521 5530 5536 5532 5529 5557 5575 5573 5575 5579 5588 5601 5614 5624 5633 5641 5647 5651 5652 5653 5653 5652 5650 5647 5643 5638 5630 5622 5617 5611 5604 5597 5590 5581 5573
5538 5543 5542 5537 5532 5526 5517 5511 5515 5505 5509 5505 5520 5535 5550 5557 5552 5555 5562 5571 5584 5598 5611 5622 5632 5639 5644 5647 5648 5649 5648 5645 5641 5637 5630 5621 5614 5609 5602 5595 5588 5581 5572 5563
5537 5530 5536 5530 5520 5516 5515 5510 5496 5485 5495 5508 5524 5534 5544 5550 5546 5547 5551 5558 5569 5584 5599 5612 5623 5630 5636 5639 5641 5641 5639 5636 5632 5626 5620 5611 5605 5599 5593 5586 5578 5570 5562 5554
5532 5520 5524 5517 5514 5519 5505 5494 5488 5493 5496 5500 5513 5534 5550 5543 5541 5541 5543 5546 5557 5571 5586 5601 5613 5621 5625 5628 5631 5631 5628 5623 5618 5612 5606 5600 5595 5589 5583 5576 5568 5560 5552 5544
5527 5519 5518 5524 5530 5524 5518 5512 5499 5487 5494 5495 5498 5525 5542 5534 5533 5532 5535 5540 5548 5560 5576 5589 5601 5609 5612 5617 5622 5620 5616 5610 5605 5600 5596 5590 5585 5580 5573 5564 5555 5548 5541 5533
5524 5510 5515 5538 5529 5516 5509 5512 5504 5487 5485 5489 5491 5516 5533 5527 5525 5526 5530 5537 5543 5554 5567 5578 5588 5596 5601 5607 5610 5607 5602 5596 5591 5589 5587 5582 5577 5571 5562 5553 5544 5536 5528 5521
5521 5513 5514 5531 5537 5521 5505 5507 5500 5483 5488 5498 5508 5518 5527 5522 5519 5522 5526 5532 5538 5550 5559 5568 5577 5585 5590 5594 5595 5592 5587 5583 5581 5581 5580 5576 5568 5560 5551 5542 5533 5524 5516 5510
5518 5514 5513 5520 5527 5522 5515 5512 5504 5493 5495 5498 5517 5520 5526 5521 5517 5519 5521 5526 5535 5547 5553 5559 5568 5575 5578 5580 5579 5576 5574 5573 5574 5574 5570 5564 5556 5547 5538 5530 5521 5513 5505 5498
5520 5516 5518 5524 5534 5536 5529 5529 5522 5513 5505 5504 5510 5517 5525 5520 5515 5515 5519 5525 5535 5546 5551 5555 5560 5564 5566 5567 5566 5566 5566 5566 5566 5564 5557 5550 5542 5534 5526 5518 5510 5501 5493 5487
5522 5515 5517 5536 5548 5541 5544 5541 5535 5530 5527 5523 5521 5533 5532 5522 5517 5518 5522 5531 5541 5549 5551 5553 5556 5558 5559 5559 5559 5560 5559 5559 5556 5551 5544 5537 5529 5521 5513 5505 5498 5490 5483 5476
5527 5520 5516 5529 5540 5550 5554 5551 5546 5543 5545 5543 5543 5546 5543 5538 5534 5532 5533 5540 5549 5554 5555 5554 5555 5554 5553 5553 5554 5554 5553 5550 5544 5538 5531 5524 5516 5508 5501 5494 5487 5480 5473 5466
5532 5523 5520 5530 5543 5553 5559 5557 5551 5548 5552 5557 5557 5559 5557 5552 5549 5548 5537 5544 5555 5559 5558 5555 5552 5550 5550 5549 5549 5548 5543 5537 5532 5525 5518 5511 5504 5498 5490 5483 5476 5468 5462 5455
5532 5527 5525 5535 5544 5556 5563 5566 5560 5556 5566 5566 5565 5568 5567 5561 5562 5558 5538 5550 5556 5554 5551 5548 5546 5544 5543 5541 5540 5538 5531 5525 5519 5512 5505 5499 5493 5487 5480 5472 5464 5457 5450 5443
5533 5531 5534 5539 5546 5561 5572 5569 5568 5570 5573 5571 5569 5572 5574 5571 5561 5541 5538 5543 5546 5544 5541 5540 5538 5535 5533 5532 5531 5527 5520 5512 5505 5500 5494 5487 5481 5474 5467 5460 5452 5445 5439 5434
5545 5544 5546 5549 5553 5565 5576 5573 5573 5575 5573 5571 5572 5570 5569 5554 5541 5537 5536 5535 5535 5533 5533 5532 5530 5525 5523 5522 5520 5514 5505 5499 5494 5488 5481 5474 5467 5460 5454 5448 5441 5435 5429 5425
5548 5554 5560 5562 5571 5580 5575 5575 5576 5570 5571 5572 5570 5564 5557 5549 5540 5534 5531 5529 5528 5526 5525 5523 5522 5518 5514 5511 5509 5503 5493 5488 5483 5476 5469 5462 5455 5448 5443 5438 5432 5425 5419 5414
5550 5549 5553 5562 5575 5578 5578 5577 5571 5563 5563 5564 5562 5558 5555 5547 5537 5532 5527 5524 5521 5519 5518 5516 5514 5511 5504 5500 5496 5491 5483 5478 5472 5465 5457 5451 5445 5439 5433 5427 5421 5415 5410 5404
5553 5551 5554 5563 5574 5578 5578 5570 5562 5556 5556 5555 5553 5550 5545 5540 5533 5528 5523 5518 5515 5513 5511 5509 5505 5500 5493 5488 5483 5477 5472 5468 5462 5455 5449 5442 5436 5430 5423 5416 5410 5405 5398 5391
5552 5557 5562 5570 5574 5574 5573 5560 5554 5553 5550 5547 5544 5539 5535 5531 5525 5521 5516 5511 5508 5505 5501 5498 5495 5490 5483 5478 5471 5466 5462 5458 5453 5447 5440 5433 5427 5420 5414 5408 5402 5393 5386 5379